Tracking 29892 objects as of 21-Nov-2024
HD Live streaming from Space Station
objects crossing your sky now

ONEWEB-0374

Track ONEWEB-0374 now!
10-day predictions
ONEWEB-0374 is classified as:


NORAD ID: 49300
Int'l Code: 2021-090X
Perigee: 1,211.5 km
Apogee: 1,214.3 km
Inclination: 87.9 °
Period: 109.5 minutes
Semi major axis: 7583 km
RCS: Unknown
Launch date: October 14, 2021
Source: United Kingdom (UK)
Launch site: VOSTOCHNY COSMODROME (VOSTO)
Your satellite tracking list
SL-18 DEB
Track 1 satellite(s)




NASA's NSSDC Master Catalog

Two Line Element Set (TLE):
1 49300U 21090X   24325.19063211  .00000456  00000-0  11958-2 0  9998
2 49300  87.9029  43.8426 0001861 101.8413 258.2925 13.14500766152154
Source of the keplerian elements: AFSPC